Weather Roundup
Issued by NWS Springfield, MO

Home | Current Version | Previous Version | Text Only | Print | Product List | Glossary On
Versions: 1 2 3 4 5 6 7 8 9 10 11 12 13 14 15 16 17 18 19 20 21 22 23 24 25 26 27 28 29 30 31 32 33 34 35 36 37 38 39 40 41 42 43 44 45 46 47 48 49 50
000
NZUS99 KSGF 250157
HRRSGF

HOURLY WEATHER
NATIONAL WEATHER SERVICE SPRINGFIELD MO
900 PM CDT SAT JUN 24 2017

......SGF CWA......

CITY           SKY/WX    TMP DP  RH WIND       PRES   REMARKS
SPRINGFIELD    CLEAR     71  50  47 N6        30.20R
JOPLIN         CLEAR     70  52  52 N5        30.20R
WEST PLAINS    CLEAR     69  52  54 N5        30.20R
ROLLA          CLEAR     64  50  60 CALM      30.18R
BRANSON        PTCLDY    66  57  72 CALM      30.21R

......SURROUNDING SGF CWA......

CITY           SKY/WX    TMP DP  RH WIND       PRES   REMARKS
CHANUTE        MOCLDY    73  45  36 E5        30.19R
PARSONS        PTCLDY    66  54  65 CALM      30.20R
COFFEYVILLE    CLEAR     70  51  51 NE5       30.18R
EMPORIA        CLEAR     69  49  48 NE7       30.19R
HARRISON AR    PTCLDY    67  54  63 NW3       30.21R

......KANSAS AND MISSOURI......

CITY           SKY/WX    TMP DP  RH WIND       PRES   REMARKS
KANSAS CTY INT CLOUDY    70  50  49 SW5       30.16S
SEDALIA        CLOUDY    71  52  50 CALM      30.18S
ST JOSEPH      PTCLDY    72  51  47 W7        30.14S
ST LOUIS       PTCLDY    72  45  37 CALM      30.16R
WICHITA        PTCLDY    75  54  47 E7        30.18R
TOPEKA         CLOUDY    74  47  38 W3        30.17R
OLATHE         CLOUDY    74  44  34 CALM      30.17S

......TENNESSEE......

CITY           SKY/WX    TMP DP  RH WIND       PRES   REMARKS
MEMPHIS        NOT AVBL
NASHVILLE      MOCLDY    77  58  51 N10       30.12R

......ARKANSAS.......

CITY           SKY/WX    TMP DP  RH WIND       PRES   REMARKS
FAYETTEVILLE   CLEAR     68  56  65 NE3       30.20R
FT SMITH       CLOUDY    77  61  57 E5        30.16R
LITTLE ROCK    CLOUDY    74  60  61 N3        30.15R

......OKLAHOMA.......

CITY           SKY/WX    TMP DP  RH WIND       PRES   REMARKS
TULSA          PTCLDY    75  59  57 E5        30.16R
MCALESTER      CLEAR     73  62  68 CALM      30.18R
OKLAHOMA CITY  MOCLDY    78  52  40 E12       30.17R

......IOWA............

CITY           SKY/WX    TMP DP  RH WIND       PRES   REMARKS
DES MOINES     NOT AVBL
QUAD CITIES    RAIN      66  49  54 W16G22    30.04S

......ILLINOIS........

CITY           SKY/WX    TMP DP  RH WIND       PRES   REMARKS
QUINCY         CLEAR     65  52  62 SW5       30.12R
CHICAGO        MOCLDY    68  43  40 NW8       30.03R




USA.gov is the U.S. government's official web portal to all federal, state and local government web resources and services.